| time (UTC) | temp F | wind direction | speed MPH | gust MPH | rain 1hr in | rain 24hr in | rain mn in | humidity % | barometer mb |
| 20260503203033 | 86 | 108 | 6.0 | 9.0 | 0.00 | 0.00 | 0.00 | 10 | 1005.7 |
| 20260503201522 | 85 | 139 | 2.0 | 12.0 | 0.00 | 0.00 | 0.00 | 10 | 1006.0 |
| 20260503200023 | 85 | 87 | 4.0 | 12.0 | 0.00 | 0.00 | 0.00 | 10 | 1006.5 |
| 20260503194519 | 85 | 144 | 6.0 | 12.0 | 0.00 | 0.00 | 0.00 | 10 | 1006.8 |
| 20260503193033 | 84 | 114 | 5.0 | 11.0 | 0.00 | 0.00 | 0.00 | 9 | 1007.1 |
| 20260503191532 | 84 | 103 | 5.0 | 9.0 | 0.00 | 0.00 | 0.00 | 10 | 1007.3 |
| 20260503190023 | 83 | 85 | 4.0 | 14.0 | 0.00 | 0.00 | 0.00 | 9 | 1007.6 |
| 20260503184510 | 84 | 76 | 5.0 | 11.0 | 0.00 | 0.00 | 0.00 | 8 | 1007.8 |
| 20260503183008 | 82 | 124 | 4.0 | 13.0 | 0.00 | 0.00 | 0.00 | 9 | 1008.2 |
| 20260503181506 | 82 | 101 | 6.0 | 12.0 | 0.00 | 0.00 | 0.00 | 8 | 1008.3 |
| 20260503180005 | 81 | 119 | 5.0 | 14.0 | 0.00 | 0.00 | 0.00 | 8 | 1008.5 |
| 20260503174605 | 81 | 149 | 7.0 | 13.0 | 0.00 | 0.00 | 0.00 | 9 | 1008.7 |
| 20260503174501 | 80 | 152 | 8.0 | 13.0 | 0.00 | 0.00 | 0.00 | 9 | 1008.6 |
| 20260503173105 | 80 | 100 | 6.0 | 12.0 | 0.00 | 0.00 | 0.00 | 9 | 1008.8 |
| 20260503171554 | 79 | 165 | 4.0 | 9.0 | 0.00 | 0.00 | 0.00 | 9 | 1009.0 |
| 20260503170105 | 78 | 105 | 3.0 | 9.0 | 0.00 | 0.00 | 0.00 | 10 | 1009.0 |
| 20260503081554 | 64 | 295 | 0.0 | 5.0 | 0.00 | 0.00 | 0.00 | 16 | 1009.4 |
| 20260503071544 | 69 | 271 | 1.0 | 5.0 | 0.00 | 0.00 | 0.00 | 11 | 1009.6 |
| 20260503054555 | 68 | 307 | 0.0 | 2.0 | 0.00 | 0.00 | 0.00 | 13 | 1009.4 |
| 20260503053034 | 68 | 314 | 0.0 | 3.0 | 0.00 | 0.00 | 0.00 | 13 | 1009.5 |
| 20260503051534 | 69 | 318 | 0.0 | 3.0 | 0.00 | 0.00 | 0.00 | 12 | 1009.5 |
| 20260503050035 | 69 | 316 | 0.0 | 3.0 | 0.00 | 0.00 | 0.00 | 12 | 1009.3 |
| 20260503044540 | 70 | 318 | 1.0 | 3.0 | 0.00 | 0.00 | 0.00 | 12 | 1009.4 |
| 20260503043042 | 71 | 286 | 0.0 | 0.0 | 0.00 | 0.00 | 0.00 | 12 | 1009.4 |
| 20260503041531 | 71 | 130 | 0.0 | 0.0 | 0.00 | 0.00 | 0.00 | 12 | 1009.3 |
| 20260503040035 | 71 | 128 | 0.0 | 0.0 | 0.00 | 0.00 | 0.00 | 13 | 1009.0 |
| 20260503034531 | 72 | 128 | 0.0 | 0.0 | 0.00 | 0.00 | 0.00 | 12 | 1008.9 |
| 20260503033030 | 73 | 128 | 0.0 | 0.0 | 0.00 | 0.00 | 0.00 | 11 | 1008.6 |
| 20260503031529 | 74 | 128 | 0.0 | 0.0 | 0.00 | 0.00 | 0.00 | 10 | 1008.5 |
| 20260503030034 | 73 | 128 | 0.0 | 0.0 | 0.00 | 0.00 | 0.00 | 9 | 1008.4 |
| 20260503024530 | 76 | 128 | 0.0 | 0.0 | 0.00 | 0.00 | 0.00 | 8 | 1008.3 |
| 20260503023029 | 78 | 128 | 0.0 | 0.0 | 0.00 | 0.00 | 0.00 | 8 | 1008.2 |
| 20260503021528 | 80 | 128 | 0.0 | 0.0 | 0.00 | 0.00 | 0.00 | 7 | 1008.2 |
| 20260503020027 | 81 | 128 | 0.0 | 2.0 | 0.00 | 0.00 | 0.00 | 6 | 1008.3 |
| 20260503014526 | 82 | 111 | 0.0 | 4.0 | 0.00 | 0.00 | 0.00 | 6 | 1008.3 |
| 20260503013035 | 82 | 101 | 2.0 | 5.0 | 0.00 | 0.00 | 0.00 | 6 | 1008.4 |
| 20260503011522 | 82 | 114 | 0.0 | 5.0 | 0.00 | 0.00 | 0.00 | 5 | 1008.5 |
| 20260503010023 | 83 | 126 | 0.0 | 10.0 | 0.00 | 0.00 | 0.00 | 6 | 1008.6 |
| 20260503004526 | 83 | 141 | 2.0 | 7.0 | 0.00 | 0.00 | 0.00 | 5 | 1008.8 |
| 20260503003019 | 83 | 129 | 0.0 | 4.0 | 0.00 | 0.00 | 0.00 | 5 | 1008.9 |
| 20260503001518 | 83 | 157 | 0.0 | 7.0 | 0.00 | 0.00 | 0.00 | 5 | 1009.0 |
| 20260503000017 | 83 | 153 | 3.0 | 8.0 | 0.00 | 0.00 | 0.00 | 5 | 1009.0 |
| 20260502234523 | 83 | 90 | 2.0 | 11.0 | 0.00 | 0.00 | 0.00 | 5 | 1009.1 |
| 20260502233029 | 84 | 258 | 2.0 | 7.0 | 0.00 | 0.00 | 0.00 | 5 | 1009.1 |
| 20260502231513 | 83 | 205 | 0.0 | 11.0 | 0.00 | 0.00 | 0.00 | 5 | 1009.2 |
| 20260502230012 | 82 | 33 | 2.0 | 9.0 | 0.00 | 0.00 | 0.00 | 6 | 1009.4 |
| 20260502224511 | 83 | 122 | 4.0 | 10.0 | 0.00 | 0.00 | 0.00 | 6 | 1009.4 |
| 20260502223009 | 83 | 99 | 6.0 | 13.0 | 0.00 | 0.00 | 0.00 | 6 | 1009.8 |
| 20260502221511 | 83 | 63 | 5.0 | 13.0 | 0.00 | 0.00 | 0.00 | 6 | 1010.2 |
| 20260502220006 | 83 | 159 | 3.0 | 11.0 | 0.00 | 0.00 | 0.00 | 7 | 1010.4 |
| 20260502214501 | 83 | 95 | 2.0 | 7.0 | 0.00 | 0.00 | 0.00 | 6 | 1010.7 |
| 20260502213100 | 83 | 190 | 5.0 | 12.0 | 0.00 | 0.00 | 0.00 | 7 | 1010.9 |
| 20260502211557 | 83 | 200 | 5.0 | 10.0 | 0.00 | 0.00 | 0.00 | 7 | 1011.3 |
| 20260502210106 | 82 | 121 | 6.0 | 11.0 | 0.00 | 0.00 | 0.00 | 7 | 1011.6 |
| 20260502204557 | 82 | 122 | 4.0 | 16.0 | 0.00 | 0.00 | 0.00 | 7 | 1011.8 |